Regional Weather Roundup
Issued by NWS

Home | Current Version | Previous Version | Graphics & Text | Print | Product List | Glossary On
Versions: 1 2 3 4 5 6 7 8 9 10 11 12 13 14 15 16 17 18 19 20 21 22 23 24 25 26 27 28 29 30 31 32 33 34 35 36 37 38 39 40 41 42 43 44 45 46 47 48 49 50
000
ASUS43 KTOP 282008
RWRKS

WEATHER ROUNDUP FOR KANSAS
NATIONAL WEATHER SERVICE GOODLAND KS
200 PM CST SAT FEB 28 2015

NOTE:  "FAIR" INDICATES FEW OR NO CLOUDS BELOW 12,000 FEET WITH NO
SIGNIFICANT WEATHER AND/OR OBSTRUCTIONS TO VISIBILITY.

KSZ001>006-013>018-027>032-041>047-282100-
NORTHWEST KANSAS

CITY           SKY/WX    TMP DP  RH WIND       PRES   REMARKS
GOODLAND       LGT SNOW  18  11  74 S8        30.08F
HAYS           CLOUDY    19   7  58 S10       30.27F WCI   8
HILL CITY      CLOUDY    20  13  74 SE9       30.23F
RUSSELL        CLOUDY    19  13  77 S12       30.27F WCI   7
$$

KSZ061>065-074>080-084>089-282100-
SOUTHWEST KANSAS

CITY           SKY/WX    TMP DP  RH WIND       PRES   REMARKS
DODGE CITY     CLOUDY    19  12  74 S14       30.20F WCI   6
ELKHART          N/A     23  13  65 S12         N/A  WCI  12
GARDEN CITY    CLOUDY    20  14  77 SE15      30.14F WCI   6
GREAT BEND     CLOUDY    19  10  68 SE10      30.29F WCI   8
LIBERAL        CLOUDY    21  14  73 SE12      30.15F WCI   9
PRATT          CLOUDY    21  14  73 S7        30.28F
$$

KSZ066>073-081>083-090>101-282100-
SOUTHEAST KANSAS

CITY           SKY/WX    TMP DP  RH WIND       PRES   REMARKS
CHANUTE        SNOW      23  21  92 SE3       30.40F VSB 1/2
COFFEYVILLE    LGT SNOW  25  22  88 E5        30.41F FOG
HUTCHINSON     LGT SNOW  21  14  74 SE7       30.34F
MEDICINE LODGE   N/A     20  15  81 SE7       30.31F
NEWTON         CLOUDY    19  12  73 SE8       30.35F
PARSONS        LGT SNOW  25  21  85 VRB3      30.41F VSB 3/4
WICHITA INTL   CLOUDY    21  16  81 SE9       30.35F
WICHITA JABRA  CLOUDY    21  17  84 S8        30.35F
WICHITA MCCONL FLURRIES  21  18  86 SE7       30.34F
WINFIELD       LGT SNOW  23  20  88 NE3       30.37F VSB 1
$$

KSZ007>012-019>026-033>040-048>060-102>105-282100-
NORTHEAST KANSAS

CITY           SKY/WX    TMP DP  RH WIND       PRES   REMARKS
CONCORDIA      LGT SNOW  20  15  81 S7        30.33F
EMPORIA        LGT SNOW  22  18  85 SE7       30.38F FOG
LAWRENCE       LGT SNOW  22  18  85 SE8       30.43F VSB 1
MANHATTAN      LGT SNOW  23  17  78 S7        30.39F
MARYSVILLE     LGT SNOW  21  18  86 S6        30.37F
OLATHE IND     LGT SNOW  21  18  88 SE7       30.42F FOG
OLATHE EXE     SNOW      21  18  88 SE6       30.41F VSB 1/2
SALINA         CLOUDY    22  15  75 S7        30.36F
TOPEKA BILLARD LGT SNOW  22  19  89 SE7       30.42F VSB 3/4
TOPEKA FORBES  LGT SNOW  23  18  81 SE6       30.40F VSB 3/4
$$


USA.gov is the U.S. government's official web portal to all federal, state and local government web resources and services.